Location: Boone Canyon
(38.3180°N, 119.2504°W)
Time: 17:23:13
(UTC+00:00)

Cosmos 1689 Rocket - Pass Details

Date: 18 September 2020
Orbit: 363 x 378 km, 97.5° (Epoch: 19 October)

Event Time Altitude Azimuth Distance (km) Brightness Sun altitude
Rises 12:36:29 0° 149° (SSE) 2,223 6.2 -13.5°
Reaches altitude 10° 12:38:31 10° 139° (SE) 1,381 5.2 -13.1°
Maximum altitude 12:41:11 32° 74° (ENE) 678 4.1 -12.6°
Drops below altitude 10° 12:43:53 10° 8° (N) 1,400 5.2 -12.1°
Sets 12:45:58 0° 359° (N) 2,260 6.1 -11.7°
